Regional Weather Roundup
Issued by NWS

Home | Current Version | Previous Version | Graphics & Text | Print | Product List | Glossary On
Versions: 1 2 3 4 5 6 7 8 9 10 11 12 13 14 15 16 17 18 19 20 21 22 23 24 25 26 27 28 29 30 31 32 33 34 35 36 37 38 39 40 41 42 43 44 45 46 47 48 49 50
000
ASUS43 KOAX 020402
RWRNE

WEATHER ROUNDUP FOR NEBRASKA
NATIONAL WEATHER SERVICE OMAHA NE
1100 PM CDT WED APR 01 2015

NOTES: SATELLITE DATA IS BEING USED TO AUGMENT CLOUD COVER ABOVE
       12000 FEET.
       "FAIR" INDICATES FEW OR NO CLOUDS BELOW 12,000 FEET WITH NO
       SIGNIFICANT WEATHER AND/OR OBSTRUCTIONS TO VISIBILITY.

  * THESE STATIONS DO NOT REPORT WEATHER SUCH AS RAIN...SNOW OR FOG.

NEZ001>004-019>022-054>056-020500-
NEBRASKA PANHANDLE

CITY           SKY/WX    TMP DP  RH WIND       PRES   REMARKS
SCOTTSBLUFF    MOCLDY    40  24  53 W9        29.89R WCI  34
ALLIANCE       CLOUDY    39  27  62 NW7       29.87S WCI  34
CHADRON        MOCLDY    36  24  62 W5        29.88S WCI  32
SIDNEY         CLOUDY    45  26  47 N12       29.86S
$$

NEZ057>060-069>072-079>082-020500-
SOUTHWEST NEBRASKA

CITY           SKY/WX    TMP DP  RH WIND       PRES   REMARKS
NORTH PLATTE   CLOUDY    56  29  35 N16G23    29.77R
IMPERIAL       LGT RAIN  53  42  66 NW18      29.81R
MCCOOK         MOCLDY    62  35  36 N22G28    29.72F
$$

NEZ005>010-023>029-035>040-094-020500-
NORTH CENTRAL NEBRASKA

CITY           SKY/WX    TMP DP  RH WIND       PRES   REMARKS
VALENTINE      CLOUDY    51  22  31 NW13      29.80F
AINSWORTH      CLOUDY    54  21  28 NW20G28   29.77S
BROKEN BOW     CLOUDY    58  27  30 N28G36    29.79R
ORD            CLOUDY    59  27  29 N24G31    29.74R
$$

NEZ041-046>049-061>064-073>077-083>087-020500-
SOUTH CENTRAL NEBRASKA

CITY           SKY/WX    TMP DP  RH WIND       PRES   REMARKS
GRAND ISLAND   LGT RAIN  55  47  74 N21       29.70R
AURORA         CLOUDY    56  50  80 N17G32    29.66F THUNDER
HASTINGS       CLOUDY    57  47  69 N24       29.64R
KEARNEY *      CLOUDY    55  41  58 N16       29.73R
YORK           LGT RAIN  55  50  82 NE33G44   29.61F
$$

NEZ011>018-030>034-042>045-020500-
NORTHEAST NEBRASKA

CITY           SKY/WX    TMP DP  RH WIND       PRES   REMARKS
NORFOLK        CLOUDY    61  42  49 N13       29.69R
ALBION         CLOUDY    60  31  32 N12G18    29.71R
BLAIR          TSTM      57  54  87 N14G22    29.68R
COLUMBUS *     CLOUDY    57  48  72 S7        29.75R
FREMONT        TSTM      58  51  78 NE9G16    29.69R
TEKAMAH        RAIN      58  53  84 NE8       29.69R
$$

NEZ050>053-065>068-078-088>093-020500-
SOUTHEAST NEBRASKA

CITY           SKY/WX    TMP DP  RH WIND       PRES   REMARKS
LINCOLN        TSTM      56  53  90 N12       29.71S FOG
OMAHA EPPLEY   HAIL      60  52  74 N12       29.69R
BEATRICE       CLOUDY    60  54  80 N14       29.66R
FALLS CITY     MOCLDY    63  56  78 SE17G28   29.60S
NEBRASKA CITY  MOCLDY    63  53  68 S20G25    29.58S
$$

NEZ044-045-051>053-067-020500-
OMAHA AREA

CITY           SKY/WX    TMP DP  RH WIND       PRES   REMARKS
OMAHA EPPLEY   HAIL      60  52  74 N12       29.69R
BLAIR          TSTM      57  54  87 N14G22    29.68R
FREMONT        TSTM      58  51  78 NE9G16    29.69R
OFFUTT AFB     MOCLDY    66  55  68 VRB6G21   29.65R THUNDER
WAHOO          RAIN      57  51  81 NE12G23   29.69R
$$



USA.gov is the U.S. government's official web portal to all federal, state and local government web resources and services.